Weather History for Eagle, AK

Change the Weather History Date:

Tuesday, February 18, 2014

  Actual Average (PABN) Record (PABN)
Temperature  
Mean Temperature -12 °F -  
Max Temperature -5 °F 14 °F 30 °F (2006)
Min Temperature -18 °F 4 °F -16 °F (1997)
Degree Days  
Heating Degree Days 76    
Moisture  
Dew Point -19 °F    
Average Humidity 69    
Maximum Humidity 79    
Minimum Humidity 56    
Precipitation  
Precipitation 0.00 in - - ()
Sea Level Pressure  
Sea Level Pressure 29.70 in    
Wind  
Wind Speed 1 mph (NNW)    
Max Wind Speed 8 mph    
Max Gust Speed -    
Visibility 9 miles    
Events Snow    
Averages and records for this station are not official NWS values.
T = Trace of Precipitation, MM = Missing Value Source: NWS Daily Summary

Daily Weather History Graph

Daily Weather History Graph

Search for Another Location

Airport:

Trip Planner

Search our weather history database for the weather conditions in past years. The results will help you decide how hot, cold, wet, or windy it might be!

Date:

Astronomy

Feb. 18, 2014 Rise Set
Actual Time 8:11 AM AKST 5:06 PM AKST
Civil Twilight 7:20 AM AKST 5:58 PM AKST
Nautical Twilight 6:23 AM AKST 6:55 PM AKST
Astronomical Twilight 5:26 AM AKST 7:51 PM AKST
Moon 10:54 PM AKST 8:16 AM AKST
Length of Visible Light 10h 37m
Length of Day
8h 54m
Waning Gibbous, 86% of the Moon is Illuminated
Feb 18
Waning Gibbous
Feb 22
Last Quarter
Feb 28
New
Mar 8
First Quarter
Mar 16
Full

Hourly Weather History & Observations

Time (AKST) Temp. Windchill Dew Point Humidity Pressure Visibility Wind Dir Wind Speed Gust Speed Precip Events Conditions
12:53 AM -11.9 °F -21.5 °F -18.0 °F 74% 29.64 in 7.0 mi WSW 3.5 mph - 0.00 in   Overcast
1:53 AM -14.1 °F - -18.9 °F 79% 29.66 in 6.0 mi Calm Calm - 0.00 in   Haze
3:53 AM -15.0 °F - -20.0 °F 78% 29.68 in 5.0 mi Calm Calm - 0.00 in   Haze
4:53 AM -17.0 °F - -23.1 °F 74% 29.69 in 7.0 mi Calm Calm - N/A   Overcast
5:04 AM -18.0 °F - -23.1 °F 78% 29.60 in 9.0 mi Calm Calm - N/A   Mostly Cloudy
5:14 AM -18.0 °F - -24.0 °F 74% 29.60 in 10.0 mi Calm Calm - N/A   Scattered Clouds
5:53 AM -18.0 °F - -24.0 °F 74% 29.70 in 10.0 mi Calm Calm - N/A   Mostly Cloudy
6:53 AM -15.0 °F - -20.9 °F 75% 29.71 in 8.0 mi Calm Calm - 0.00 in Snow Light Snow
7:53 AM -16.1 °F - -22.0 °F 74% 29.73 in 5.0 mi Calm Calm - 0.00 in Snow Light Snow
8:38 AM -18.0 °F - -24.0 °F 74% 29.63 in 5.0 mi Calm Calm - 0.00 in   Haze
8:53 AM -18.9 °F - -25.1 °F 74% 29.73 in 8.0 mi Calm Calm - 0.00 in   Mostly Cloudy
9:06 AM -18.9 °F - -25.1 °F 74% 29.63 in 10.0 mi Calm Calm - N/A   Scattered Clouds
9:53 AM -14.1 °F - -20.9 °F 71% 29.73 in 10.0 mi Calm Calm - N/A   Overcast
10:53 AM -11.0 °F - -18.9 °F 68% 29.73 in 10.0 mi Calm Calm - N/A   Overcast
11:53 AM -8.0 °F -16.9 °F -17.0 °F 65% 29.72 in 10.0 mi NW 3.5 mph - N/A   Overcast
12:53 PM -7.1 °F - -17.0 °F 62% 29.73 in 10.0 mi Calm Calm - N/A   Overcast
1:53 PM -6.0 °F - -15.0 °F 65% 29.73 in 10.0 mi Calm Calm - N/A   Overcast
2:53 PM -6.0 °F - -15.0 °F 65% 29.72 in 10.0 mi Calm Calm - N/A   Overcast
3:53 PM -5.1 °F -13.6 °F -14.1 °F 65% 29.72 in 10.0 mi NNE 3.5 mph - N/A   Overcast
4:53 PM -6.0 °F - -14.1 °F 68% 29.72 in 10.0 mi Calm Calm - N/A   Overcast
5:53 PM -6.0 °F - -14.1 °F 68% 29.73 in 10.0 mi Calm Calm - N/A   Overcast
6:53 PM -6.0 °F - -14.1 °F 68% 29.73 in 10.0 mi Calm Calm - N/A   Overcast
7:53 PM -6.0 °F - -14.1 °F 68% 29.73 in 10.0 mi Calm Calm - N/A   Overcast
8:53 PM -7.1 °F -15.9 °F -18.9 °F 56% 29.74 in 10.0 mi Variable 3.5 mph - N/A   Overcast
9:53 PM -7.1 °F -18.1 °F -18.0 °F 59% 29.74 in 10.0 mi Variable 4.6 mph - N/A   Overcast
10:53 PM -8.0 °F -21.0 °F -18.9 °F 59% 29.74 in 10.0 mi Variable 5.8 mph - N/A   Overcast
11:53 PM -9.0 °F -25.2 °F -20.0 °F 59% 29.75 in 10.0 mi East 8.1 mph - N/A   Overcast